[[{"header":{"parameterUnit":"m.s-1","parameterCategory":1,"la1":30.2991,"la2":30.254,"lo1":-89.0895,"lo2":-89.0444,"dy":0.0017,"dx":0.0017,"nx":28,"ny":28,"refTime":"2025-11-12T09:00:00:Z","depth":0,"parameterNumber":2,"parameterNumberName":"U-component_of_WINDS"},"data":[0,0,0,0,0,0,0,0,0,0,0,0,0,0,0,0,0,0,0,0,0,0,0,0,0,0,0,0,0,0,0,0,0,0,0,0,0,0,0,0,0,0,0,0,0,0,0,0,0,0,0,0,0,0,0,0,0,0,0.8338,0.8338,0,0.8349,0.8349,0.8349,0.8351,0.8351,0.8351,0.8351,0.8362,0.8362,0.8363,0,0,0,0,0,0,0,0,0,0,0,0,0,0.8316,0.8317,0.8338,0.8338,0.8338,0.8349,0.8349,0.8349,0.8351,0.8351,0.8351,0.8351,0.8362,0.8362,0.8363,0,0,0,0,0,0,0,0,0,0,0,0,0,0.8327,0.8317,0.8337,0.834,0.834,0.8349,0.8349,0.8349,0.8351,0.8351,0.8351,0.8351,0.8362,0.8362,0.8363,0.8369,0,0,0.8365,0.8365,0,0,0,0,0,0,0,0,0.8326,0.8327,0.834,0.834,0.834,0.8349,0.8346,0.8356,0.8351,0.8347,0.8351,0.8351,0.8358,0.8358,0.8361,0.837,0.837,0.8365,0.8365,0.8365,0.8365,0,0,0,0,0,0,0,0.8325,0.8327,0.8342,0.834,0.834,0.834,0.8342,0.8348,0.8353,0.8347,0.8348,0.8349,0.8358,0.836,0.8361,0.837,0.8365,0.8365,0.8365,0.8366,0.8385,0.8385,0,0,0,0,0,0,0.8324,0.8326,0.8342,0.8342,0.8333,0.8341,0.8342,0.8346,0.8353,0.8354,0.8349,0.8349,0.8359,0.836,0.8362,0.837,0.8365,0.8366,0.8366,0.8385,0.8385,0.8385,0,0,0,0,0,0,0.8324,0.8326,0.8341,0.8334,0.8336,0.8342,0.8346,0.8346,0.8349,0.8354,0.8355,0.8351,0.8359,0.8361,0.8367,0.837,0.8366,0.8366,0.8384,0.8385,0.8385,0.8385,0,0,0,0,0,0,0.8323,0.8325,0.8328,0.8334,0.8337,0.8347,0.8346,0.8347,0.835,0.835,0.8356,0.8357,0.8359,0.8366,0.8368,0.8371,0.8367,0.8384,0.8385,0.8385,0.8385,0.8386,0.8386,0,0,0,0,0,0.8322,0.8328,0.8328,0.833,0.834,0.8347,0.8348,0.8351,0.835,0.8353,0.8356,0.8357,0.8369,0.8367,0.8369,0.8372,0.8384,0.8384,0.8385,0.8385,0.8386,0.8386,0,0,0,0,0,0,0.8321,0.8328,0.8329,0.8337,0.8341,0.8347,0.8351,0.8352,0.8357,0.8357,0.836,0.8361,0.8367,0.837,0.8367,0.8378,0.8377,0.8377,0.8376,0.8377,0.8377,0.8376,0.8367,0,0,0,0,0,0.8322,0.8327,0.8333,0.8339,0.8341,0.8346,0.8349,0.8351,0.8356,0.8357,0.8361,0.8366,0.8371,0.8374,0.8379,0.8386,0.8387,0.8388,0.8389,0.8389,0.839,0.8393,0.8394,0.8386,0.8386,0.8386,0,0,0.8323,0.8328,0.8331,0.8339,0.8343,0.8348,0.8347,0.8353,0.8357,0.8358,0.8365,0.8368,0.8373,0.8379,0.8383,0.8382,0.8392,0.839,0.839,0.839,0.8394,0.8395,0.8395,0.8386,0.8386,0.8386,0,0,0.8328,0.8332,0.8338,0.8342,0.8347,0.835,0.8352,0.8358,0.836,0.8366,0.8368,0.8372,0.838,0.8384,0.8387,0.8393,0.8394,0.8395,0.8397,0.8401,0.8401,0.8402,0.8404,0.8405,0.8395,0.8395,0.8395,0,0.8329,0.8337,0.834,0.8346,0.8349,0.8351,0.8357,0.836,0.8367,0.8369,0.8369,0.8379,0.8383,0.839,0.8392,0.8394,0.8396,0.8394,0.8401,0.8402,0.8402,0.8404,0.8405,0.8395,0.8395,0.8395,0.8395,0,0.8338,0.8343,0.8347,0.8354,0.8358,0.8363,0.8367,0.8371,0.8372,0.8375,0.8382,0.8386,0.8392,0.8394,0.8395,0.8401,0.8401,0.84,0.8399,0.8403,0.8405,0.8406,0.8396,0.8395,0.8395,0.8395,0,0,0.8342,0.8351,0.8353,0.8356,0.8362,0.8367,0.8372,0.8378,0.8381,0.8386,0.839,0.8397,0.8397,0.84,0.8402,0.8405,0.841,0.8405,0.8405,0.8405,0.8417,0.8417,0.8418,0.841,0.8411,0.8411,0.8417,0,0.8348,0.8359,0.8362,0.837,0.8375,0.8377,0.8381,0.8386,0.8389,0.8393,0.8396,0.8401,0.84,0.8402,0.8406,0.8409,0.8412,0.8408,0.8414,0.8415,0.8413,0.842,0.842,0.8425,0.8418,0.8418,0.8418,0,0.8357,0.8362,0.8371,0.8377,0.8379,0.8383,0.8389,0.8393,0.8398,0.84,0.8404,0.8405,0.8411,0.8409,0.8416,0.8413,0.8416,0.8418,0.8418,0.8419,0.8417,0.842,0.8427,0.8428,0.8419,0.8419,0.8419,0,0.8359,0.8369,0.8375,0.8378,0.8385,0.8388,0.8391,0.8396,0.8399,0.8404,0.8406,0.8411,0.8414,0.8418,0.842,0.8419,0.8428,0.8426,0.8429,0.8429,0.8431,0.8431,0.8438,0.8432,0.8432,0.8432,0.8432,0,0.8366,0.8371,0.8376,0.838,0.8387,0.839,0.8396,0.8399,0.8403,0.8407,0.8409,0.8413,0.8416,0.8421,0.8423,0.8429,0.843,0.8431,0.8432,0.8431,0.8431,0.8433,0.8433,0.8433,0.8433,0.8433,0.8433,0,0.837,0.8373,0.8381,0.8387,0.8389,0.8393,0.8398,0.8402,0.8405,0.841,0.8412,0.8416,0.8421,0.8424,0.8431,0.8432,0.8439,0.8439,0.8437,0.8437,0.844,0.844,0.8449,0.8451,0.8444,0.8444,0.8444,0,0.8374,0.8378,0.8384,0.8388,0.8391,0.8396,0.84,0.8403,0.8406,0.8412,0.8415,0.8421,0.8425,0.8434,0.8437,0.8442,0.8443,0.8446,0.8443,0.8443,0.8443,0.8442,0.8443,0.8446,0.8446,0.8446,0.8446,0,0.838,0.8382,0.8387,0.8393,0.8397,0.8402,0.8406,0.8409,0.8413,0.8416,0.8422,0.8426,0.8432,0.8438,0.8443,0.8446,0.8446,0.8447,0.8448,0.8447,0.8446,0.8447,0.8438,0.8447,0.8446,0.8446,0.8446,0.8446,0.8384,0.8388,0.8393,0.8399,0.8403,0.8407,0.8411,0.8414,0.8419,0.8425,0.8427,0.8433,0.8437,0.8445,0.8447,0.8452,0.8451,0.8453,0.8453,0.8453,0.8453,0.8445,0.8453,0.8453,0.8453,0.8453,0.8453,0,0.8391,0.8394,0.8399,0.8406,0.841,0.8411,0.8416,0.842,0.8425,0.8429,0.8434,0.844,0.8445,0.8449,0.8454,0.8457,0.8458,0.8458,0.8458,0.8459,0.8454,0.8452,0.8458,0.8458,0.8458,0.8458,0.8458,0.8458,0.8395,0.8401,0.8404,0.8412,0.8415,0.8421,0.8424,0.8428,0.8432,0.8439,0.8443,0.8446,0.845,0.8455,0.846,0.8461,0.8463,0.8464,0.8465,0.846,0.8459,0.8459,0.8457,0.8464,0.8464,0.847,0.847,0.847]},{"header":{"parameterUnit":"m.s-1","parameterCategory":1,"la1":30.2991,"la2":30.254,"lo1":-89.0895,"lo2":-89.0444,"dy":0.0017,"dx":0.0017,"nx":28,"ny":28,"refTime":"2025-11-12T09:00:00:Z","depth":0,"parameterNumber":3,"parameterNumberName":"V-component_of_WINDS"},"data":[0,0,0,0,0,0,0,0,0,0,0,0,0,0,0,0,0,0,0,0,0,0,0,0,0,0,0,0,0,0,0,0,0,0,0,0,0,0,0,0,0,0,0,0,0,0,0,0,0,0,0,0,0,0,0,0,0,0,3.3027,3.3026,0,3.294,3.2939,3.2938,3.2896,3.2896,3.2897,3.2897,3.2801,3.2799,3.2796,0,0,0,0,0,0,0,0,0,0,0,0,0,3.3152,3.315,3.3027,3.3026,3.3025,3.294,3.2939,3.2938,3.2896,3.2896,3.2897,3.2897,3.2802,3.2799,3.2796,0,0,0,0,0,0,0,0,0,0,0,0,0,3.3085,3.3149,3.3027,3.2994,3.2991,3.294,3.2939,3.2937,3.2896,3.2896,3.2897,3.2897,3.2803,3.2799,3.2795,3.277,0,0,3.2784,3.2782,0,0,0,0,0,0,0,0,3.3088,3.308,3.3,3.2997,3.2992,3.2929,3.2948,3.2881,3.2896,3.2932,3.2897,3.2897,3.2843,3.2836,3.2819,3.2765,3.2761,3.2783,3.2781,3.2779,3.2778,0,0,0,0,0,0,0,3.3093,3.3083,3.2992,3.2999,3.2994,3.2982,3.2972,3.2935,3.2888,3.2929,3.2926,3.2916,3.2841,3.2823,3.2817,3.276,3.2783,3.278,3.2777,3.2776,3.2679,3.2679,0,0,0,0,0,0,3.3104,3.3088,3.2995,3.299,3.3042,3.298,3.2969,3.2949,3.2888,3.2879,3.2916,3.2915,3.283,3.2821,3.2813,3.2779,3.2779,3.2776,3.2773,3.2679,3.2679,3.2679,0,0,0,0,0,0,3.3107,3.3096,3.2999,3.3038,3.3025,3.2977,3.2955,3.2947,3.293,3.2879,3.287,3.2907,3.283,3.2819,3.2781,3.2775,3.2774,3.277,3.2679,3.2679,3.2679,3.271,0,0,0,0,0,0,3.3111,3.3098,3.3089,3.3038,3.3023,3.297,3.2955,3.2946,3.2924,3.2921,3.2868,3.2859,3.2829,3.2787,3.2777,3.2769,3.2767,3.268,3.2679,3.2679,3.2709,3.2711,3.2712,0,0,0,0,0,3.3115,3.31,3.3088,3.3077,3.3011,3.297,3.296,3.2928,3.2923,3.2913,3.288,3.2861,3.2777,3.2784,3.2772,3.2763,3.268,3.2679,3.2679,3.2708,3.271,3.2712,0,0,0,0,0,0,3.3148,3.3092,3.3079,3.3047,3.3014,3.2963,3.2949,3.2931,3.2896,3.2895,3.2854,3.2842,3.2808,3.2781,3.2789,3.2734,3.2727,3.2724,3.2753,3.2754,3.2756,3.2762,3.2764,0,0,0,0,0,3.3152,3.3126,3.3077,3.3053,3.3037,3.2996,3.2977,3.2955,3.2918,3.2903,3.2867,3.283,3.2795,3.2773,3.2739,3.2705,3.2692,3.2693,3.2694,3.2696,3.2694,3.2673,3.2673,3.2677,3.2677,3.2677,0,0,3.3159,3.3125,3.3111,3.3059,3.3031,3.3002,3.2984,3.2955,3.2932,3.2897,3.286,3.2833,3.2789,3.2753,3.2735,3.273,3.269,3.2695,3.2697,3.2693,3.2673,3.2672,3.2672,3.2676,3.2677,3.2677,0,0,3.3158,3.313,3.3107,3.3079,3.3037,3.301,3.3004,3.2956,3.2937,3.29,3.2873,3.2845,3.2786,3.2756,3.2733,3.272,3.27,3.271,3.2716,3.2697,3.2697,3.2696,3.2691,3.269,3.2708,3.2708,3.2708,0,3.3171,3.3129,3.3097,3.3069,3.3047,3.3016,3.2991,3.2965,3.2913,3.2897,3.2893,3.2819,3.2787,3.2743,3.274,3.2723,3.2714,3.2715,3.27,3.2699,3.2698,3.2692,3.2691,3.2709,3.2709,3.2709,3.2709,0,3.3147,3.3119,3.3105,3.3058,3.3034,3.3007,3.297,3.2949,3.2929,3.2902,3.2863,3.2824,3.2781,3.2769,3.2748,3.2722,3.272,3.2708,3.2699,3.27,3.2694,3.2691,3.2711,3.2711,3.271,3.271,0,0,3.3164,3.31,3.3095,3.3074,3.3025,3.3001,3.2973,3.2933,3.2915,3.288,3.2855,3.2806,3.2795,3.2769,3.2744,3.2727,3.2719,3.2717,3.2715,3.2718,3.2687,3.2697,3.2695,3.2706,3.2705,3.2705,3.2691,0,3.3155,3.3106,3.3076,3.3038,3.301,3.2981,3.2956,3.2922,3.2896,3.2867,3.2837,3.2803,3.2791,3.2775,3.2757,3.2724,3.2712,3.2725,3.268,3.2679,3.2692,3.2692,3.2701,3.269,3.2688,3.2688,3.2688,0,3.3138,3.3106,3.3067,3.3021,3.3008,3.2987,3.2948,3.2921,3.2882,3.2863,3.2835,3.2811,3.2778,3.2772,3.2726,3.2735,3.2715,3.2696,3.2694,3.2688,3.2683,3.2685,3.2685,3.2684,3.2684,3.2684,3.2684,0,3.3154,3.3101,3.307,3.3052,3.2998,3.2984,3.2961,3.2922,3.29,3.2864,3.2849,3.281,3.2788,3.2758,3.2723,3.2722,3.2679,3.2671,3.2662,3.2663,3.2654,3.2655,3.2651,3.2642,3.2642,3.2642,3.2642,0,3.3147,3.3124,3.3076,3.3057,3.303,3.2995,3.2968,3.2941,3.2907,3.2881,3.2852,3.2828,3.2783,3.2753,3.2725,3.2691,3.2681,3.2664,3.2657,3.2666,3.2669,3.2652,3.2652,3.2642,3.2642,3.2642,3.2642,0,3.316,3.3127,3.3092,3.3045,3.3032,3.3014,3.2972,3.2952,3.2924,3.2891,3.2882,3.2838,3.28,3.2763,3.2712,3.2693,3.2659,3.2649,3.2673,3.2669,3.2662,3.2663,3.2647,3.2642,3.2637,3.2638,3.2638,0,3.3158,3.3139,3.3091,3.3073,3.3051,3.3021,3.2999,3.2963,3.2941,3.2895,3.2879,3.2841,3.2808,3.2749,3.2711,3.2672,3.2661,3.2658,3.2655,3.2665,3.266,3.2662,3.2659,3.2659,3.2659,3.2659,3.266,0,3.3157,3.3142,3.3112,3.3077,3.3052,3.3022,3.299,3.2976,3.2934,3.291,3.2873,3.2847,3.2796,3.2758,3.2714,3.2687,3.2666,3.2661,3.2657,3.2666,3.2681,3.2672,3.2676,3.2661,3.2661,3.2661,3.2661,3.2661,3.3162,3.3144,3.3108,3.3075,3.3048,3.3019,3.2998,3.2969,3.2938,3.2895,3.2875,3.2838,3.2798,3.2738,3.2712,3.268,3.2674,3.2668,3.2667,3.2666,3.2668,3.2686,3.2672,3.2672,3.2672,3.2672,3.2672,0,3.3159,3.3135,3.3105,3.3063,3.3038,3.3022,3.2986,3.2965,3.2933,3.2899,3.2868,3.2825,3.2787,3.2747,3.2706,3.2689,3.2678,3.2679,3.268,3.2674,3.2676,3.2683,3.2689,3.2689,3.2689,3.2689,3.2689,3.2689,3.3155,3.3124,3.3105,3.306,3.3035,3.3,3.2981,3.2953,3.2926,3.288,3.2849,3.2824,3.2787,3.2743,3.2708,3.2696,3.2682,3.2687,3.2673,3.2675,3.2674,3.2673,3.2679,3.2684,3.2684,3.2673,3.2673,3.2673]}]]